Tracking 30995 objects as of 5-Jul-2025
HD Live streaming from Space Station
objects crossing your sky now

STARLINK-11227

Track STARLINK-11227 now!
10-day predictions
STARLINK-11227 is classified as:


NORAD ID: 60303
Int'l Code: 2024-133C
Perigee: 365.9 km
Apogee: 368.2 km
Inclination: 53.2 °
Period: 91.7 minutes
Semi major axis: 6738 km
RCS: Unknown
Launch date: July 28, 2024
Source: United States (US)
Launch site: AIR FORCE WESTERN TEST RANGE (AFWTR)
Your satellite tracking list
Your tracking list is empty




NASA's NSSDC Master Catalog

Two Line Element Set (TLE):
1 60303U 24133C   25186.53146055 -.00007086  00000-0 -53816-4 0  9996
2 60303  53.1590 284.7315 0001739 144.6627 215.4507 15.69643876 54993
Source of the keplerian elements: AFSPC